Lincoln County, Oregon, United States
Lat: 44.65N, Lon: 123.85W
Wx Zone: ORZ004
Local Info
Past Weather Observations for Yesterday

NOTE: This archive is for the closest National Weather Service station to Lincoln County. Information may differ from the station used for current weather conditions.

Click here for Long-term Archive

Time Weather Temperature Dewpoint Humidity Pressure Winds Precip Visibility
23:55
Partly Cloudy
54°F / 12°C 52°F / 11°C 94% 30.39 in
(1029 mb)
S 5.8 mph
(S 9 kph)
- 7SM
23:35
Partly Cloudy
54°F / 12°C 52°F / 11°C 94% 30.36 in
(1028 mb)
S 5.8 mph
(S 9 kph)
- 7SM
23:15
Mostly Cloudy
Fog And Mist
54°F / 12°C 52°F / 11°C 94% 30.36 in
(1028 mb)
S 5.8 mph
(S 9 kph)
- 5SM
22:55
Mostly Cloudy
Fog And Mist
54°F / 12°C 52°F / 11°C 94% 30.36 in
(1028 mb)
S 9.2 mph
(S 15 kph)
- 5SM
22:35
Mostly Cloudy
Fog And Mist
54°F / 12°C 52°F / 11°C 94% 30.36 in
(1028 mb)
S 12.7 mph
(S 20 kph)
- 4SM
22:15
Overcast
Fog And Mist
54°F / 12°C 54°F / 12°C 100% 30.36 in
(1028 mb)
S 11.5 mph
(S 19 kph)
- 3SM
21:55
Overcast
Fog And Mist
54°F / 12°C 54°F / 12°C 100% 30.36 in
(1028 mb)
SW 10.4 mph
(SW 17 kph)
- 3SM
21:35
Fog And Mist
54°F / 12°C 54°F / 12°C 100% 30.36 in
(1028 mb)
SSE 9.2 mph
(SSE 15 kph)
- 3SM
21:15
Mostly Cloudy
Fog And Mist
54°F / 12°C 54°F / 12°C 100% 30.36 in
(1028 mb)
SSE 11.5 mph
(SSE 19 kph)
- 4SM
20:55
Mostly Cloudy
Fog And Mist
54°F / 12°C 54°F / 12°C 100% 30.36 in
(1028 mb)
SSE 10.4 mph
(SSE 17 kph)
0.01 in
(0.25 mm)
3SM
20:35
Mostly Cloudy
Heavy Rain
55°F / 13°C 54°F / 12°C 94% 30.36 in
(1028 mb)
SSE 13.8 mph
(SSE 22 kph)
0.01 in
(0.25 mm)
3SM
20:15
Mostly Cloudy
Fog And Mist
55°F / 13°C 54°F / 12°C 94% 30.36 in
(1028 mb)
SW 11.5 mph
(SW 19 kph)
- 5SM
19:55
Mostly Cloudy
Fog And Mist
55°F / 13°C 54°F / 12°C 94% 30.36 in
(1028 mb)
SW 12.7 mph
(SW 20 kph)
- 4SM
19:35
Mostly Cloudy
Fog And Mist
55°F / 13°C 54°F / 12°C 94% 30.33 in
(1027 mb)
SW 11.5 mph
(SW 19 kph)
- 5SM
19:15
Mostly Cloudy
Fog And Mist
55°F / 13°C 54°F / 12°C 94% 30.33 in
(1027 mb)
SW 13.8 mph
(SW 22 kph)
- 5SM
18:55
Partly Cloudy
Fog And Mist
55°F / 13°C 54°F / 12°C 94% 30.33 in
(1027 mb)
SW 10.4 mph
(SW 17 kph)
- 5SM
18:35
Partly Cloudy
Fog And Mist
55°F / 13°C 54°F / 12°C 94% 30.33 in
(1027 mb)
SW 12.7 mph
(SW 20 kph)
- 5SM
18:15
Mostly Cloudy
Fog And Mist
55°F / 13°C 54°F / 12°C 94% 30.33 in
(1027 mb)
SW 13.8 mph
(SW 22 kph)
- 5SM
17:55
Mostly Cloudy
Fog And Mist
55°F / 13°C 54°F / 12°C 94% 30.33 in
(1027 mb)
SW 12.7 mph
(SW 20 kph)
- 5SM
17:35
Mostly Cloudy
Fog And Mist
55°F / 13°C 54°F / 12°C 94% 30.33 in
(1027 mb)
SW 12.7 mph
(SW 20 kph)
- 5SM
17:15
Mostly Cloudy
Fog And Mist
55°F / 13°C 52°F / 11°C 88% 30.33 in
(1027 mb)
SW 16.1 mph
(SW 26 kph)
- 5SM
16:55
Partly Cloudy
Fog And Mist
55°F / 13°C 54°F / 12°C 94% 30.33 in
(1027 mb)
SW 15 mph
(SW 24 kph)
- 5SM
16:35
Mostly Cloudy
Fog And Mist
55°F / 13°C 52°F / 11°C 88% 30.33 in
(1027 mb)
SW 16.1 mph
(SW 26 kph)
- 5SM
16:15
Mostly Cloudy
Fog And Mist
55°F / 13°C 52°F / 11°C 88% 30.33 in
(1027 mb)
SW 15 mph
(SW 24 kph)
- 5SM
15:55
Partly Cloudy
Fog And Mist
55°F / 13°C 54°F / 12°C 94% 30.33 in
(1027 mb)
SW 12.7 mph
(SW 20 kph)
- 4SM
15:35
Mostly Cloudy
Fog And Mist
55°F / 13°C 54°F / 12°C 94% 30.33 in
(1027 mb)
SW 13.8 mph
(SW 22 kph)
- 5SM
15:15
Mostly Cloudy
Fog And Mist
55°F / 13°C 52°F / 11°C 88% N/A SW 16.1 mph
(SW 26 kph)
- 5SM
14:55
Partly Cloudy
Fog And Mist
55°F / 13°C 54°F / 12°C 94% 30.33 in
(1027 mb)
SW 16.1 mph
(SW 26 kph)
- 5SM
14:35
Partly Cloudy
Fog And Mist
55°F / 13°C 54°F / 12°C 94% 30.33 in
(1027 mb)
SW 16.1 mph
(SW 26 kph)
- 5SM
14:15
Partly Cloudy
Fog And Mist
55°F / 13°C 52°F / 11°C 88% 30.33 in
(1027 mb)
SW 16.1 mph
(SW 26 kph)
- 4SM
13:55
Partly Cloudy
Fog And Mist
55°F / 13°C 52°F / 11°C 88% 30.33 in
(1027 mb)
SW 15 mph
(SW 24 kph)
- 5SM
13:35
Partly Cloudy
Fog And Mist
55°F / 13°C 52°F / 11°C 88% 30.33 in
(1027 mb)
SSE 19.6 mph
(SSE 32 kph)
- 4SM
13:15
Mostly Cloudy
Fog And Mist
55°F / 13°C 52°F / 11°C 88% 30.33 in
(1027 mb)
SSE 19.6 mph
(SSE 32 kph)
- 5SM
12:55
Partly Cloudy
Fog And Mist
55°F / 13°C 52°F / 11°C 88% 30.33 in
(1027 mb)
SSE 19.6 mph
(SSE 32 kph)
- 5SM
12:35
Partly Cloudy
Fog And Mist
55°F / 13°C 52°F / 11°C 88% 30.33 in
(1027 mb)
SSE 19.6 mph
(SSE 32 kph)
- 5SM
12:15
Mostly Cloudy
Fog And Mist
55°F / 13°C 52°F / 11°C 88% 30.33 in
(1027 mb)
SSE 21.9 mph
(SSE 35 kph)
- 4SM
11:55
Partly Cloudy
55°F / 13°C 52°F / 11°C 88% 30.33 in
(1027 mb)
SSE 19.6 mph
(SSE 32 kph)
- 7SM
11:35
Partly Cloudy
Fog And Mist
55°F / 13°C 52°F / 11°C 88% 30.33 in
(1027 mb)
S 20.7 mph
(S 33 kph)
- 5SM
11:15
Partly Cloudy
Fog And Mist
55°F / 13°C 52°F / 11°C 88% 30.33 in
(1027 mb)
SSE 18.4 mph
(SSE 30 kph)
- 5SM
10:55
Partly Cloudy
Hazy
55°F / 13°C 50°F / 10°C 82% 30.33 in
(1027 mb)
SSE 17.3 mph
(SSE 28 kph)
- 5SM
10:35
Partly Cloudy
Fog And Mist
54°F / 12°C 52°F / 11°C 94% 30.33 in
(1027 mb)
SSE 18.4 mph
(SSE 30 kph)
- 5SM
10:15
Clear
Fog And Mist
54°F / 12°C 52°F / 11°C 94% 30.36 in
(1028 mb)
SSE 18.4 mph
(SSE 30 kph)
- 4SM
09:55
Partly Cloudy
Fog And Mist
54°F / 12°C 52°F / 11°C 94% 30.33 in
(1027 mb)
SSE 16.1 mph
(SSE 26 kph)
- 4SM
09:35
Clear
Fog And Mist
54°F / 12°C 50°F / 10°C 88% 30.33 in
(1027 mb)
S 13.8 mph
(S 22 kph)
- 5SM
09:15
Clear
Fog And Mist
52°F / 11°C 50°F / 10°C 94% 30.33 in
(1027 mb)
S 16.1 mph
(S 26 kph)
- 5SM
08:55
Clear
Fog And Mist
52°F / 11°C 50°F / 10°C 94% 30.33 in
(1027 mb)
S 11.5 mph
(S 19 kph)
- 5SM
08:35
Partly Cloudy
Fog And Mist
52°F / 11°C 50°F / 10°C 94% 30.33 in
(1027 mb)
S 12.7 mph
(S 20 kph)
- 5SM
08:15
Partly Cloudy
Fog And Mist
52°F / 11°C 50°F / 10°C 94% 30.36 in
(1028 mb)
S 10.4 mph
(S 17 kph)
- 5SM
07:55
Partly Cloudy
Fog And Mist
50°F / 10°C 48°F / 9°C 94% 30.36 in
(1028 mb)
S 9.2 mph
(S 15 kph)
- 5SM
07:35
Mostly Cloudy
Fog And Mist
50°F / 10°C 48°F / 9°C 94% 30.36 in
(1028 mb)
S 10.4 mph
(S 17 kph)
- 5SM
07:15
Mostly Cloudy
50°F / 10°C 48°F / 9°C 94% 30.33 in
(1027 mb)
S 9.2 mph
(S 15 kph)
- 7SM
06:55
Mostly Cloudy
50°F / 10°C 48°F / 9°C 94% 30.33 in
(1027 mb)
S 10.4 mph
(S 17 kph)
- 7SM
06:35
Mostly Cloudy
50°F / 10°C 46°F / 8°C 88% 30.33 in
(1027 mb)
S 9.2 mph
(S 15 kph)
- 7SM
06:15
Mostly Cloudy
50°F / 10°C 46°F / 8°C 88% 30.33 in
(1027 mb)
S 8.1 mph
(S 13 kph)
- 7SM
05:55
Partly Cloudy
50°F / 10°C 46°F / 8°C 88% 30.33 in
(1027 mb)
S 8.1 mph
(S 13 kph)
- 7SM
05:35
Clear
50°F / 10°C 46°F / 8°C 88% 30.33 in
(1027 mb)
S 9.2 mph
(S 15 kph)
- 7SM
05:15
Clear
50°F / 10°C 46°F / 8°C 88% 30.33 in
(1027 mb)
SSE 8.1 mph
(SSE 13 kph)
- 7SM
04:55
Clear
50°F / 10°C 46°F / 8°C 88% 30.33 in
(1027 mb)
S 6.9 mph
(S 11 kph)
- 7SM
04:35
Clear
50°F / 10°C 46°F / 8°C 88% 30.33 in
(1027 mb)
SSE 8.1 mph
(SSE 13 kph)
- 7SM
04:15
Clear
48°F / 9°C 46°F / 8°C 94% 30.33 in
(1027 mb)
SSE 9.2 mph
(SSE 15 kph)
- 10SM
03:55
Clear
48°F / 9°C 46°F / 8°C 94% 30.33 in
(1027 mb)
SSE 6.9 mph
(SSE 11 kph)
- 10SM
03:35
Partly Cloudy
50°F / 10°C 46°F / 8°C 88% 30.33 in
(1027 mb)
S 6.9 mph
(S 11 kph)
- 10SM
03:15
Partly Cloudy
48°F / 9°C 46°F / 8°C 94% 30.33 in
(1027 mb)
S 5.8 mph
(S 9 kph)
- 7SM
02:55
Partly Cloudy
48°F / 9°C 46°F / 8°C 94% 30.33 in
(1027 mb)
SSE 6.9 mph
(SSE 11 kph)
- 10SM
02:15
Partly Cloudy
48°F / 9°C 46°F / 8°C 94% 30.33 in
(1027 mb)
S 5.8 mph
(S 9 kph)
- 7SM
01:55
Mostly Cloudy
48°F / 9°C 46°F / 8°C 94% 30.33 in
(1027 mb)
SSE 6.9 mph
(SSE 11 kph)
- 7SM
01:35
Partly Cloudy
50°F / 10°C 46°F / 8°C 88% 30.3 in
(1026 mb)
S 6.9 mph
(S 11 kph)
- 7SM
01:15
Clear
48°F / 9°C 46°F / 8°C 94% 30.3 in
(1026 mb)
SSE 6.9 mph
(SSE 11 kph)
- 7SM
00:55
Clear
Hazy
54°F / 12°C 48°F / 9°C 82% 30.3 in
(1026 mb)
SW 10.4 mph
(SW 17 kph)
- 5SM
00:35
Clear
Hazy
54°F / 12°C 48°F / 9°C 82% 30.3 in
(1026 mb)
SW 9.2 mph
(SW 15 kph)
- 5SM
00:15
Clear
48°F / 9°C 46°F / 8°C 94% 30.3 in
(1026 mb)
SSE 5.8 mph
(SSE 9 kph)
- 7SM
Time Weather Temperature Dewpoint Humidity Pressure Winds Precip Visibility


Weather for websites

WeatherForYou.com, LLC is not responsible for any damages or problems caused by this service. Current weather conditions are obtained from the closest station including government and personal stations which may have varying degrees of accuracy. Weather forecasts are derived from the NOAA NDFD. Like all things, this site belongs to Jesus Christ... He just trusts me to maintain it. If you have any questions or comments email webmaster@weatherforyou.com

Copyright © 2014, WeatherForYou.com LLC. All rights reserved.